| time (UTC) | temp F | wind direction | speed MPH | gust MPH | rain 1hr in | rain 24hr in | rain mn in | humidity % | barometer mb |
| 20260502211519 | 54 | 270 | 3.0 | 7.0 | 0.00 | 0.01 | 0.01 | 46 | 1010.3 |
| 20260502210520 | 54 | 315 | 4.0 | 10.0 | 0.00 | 0.01 | 0.01 | 46 | 1010.2 |
| 20260502205947 | 54 | 315 | 3.0 | 9.0 | 0.00 | 0.01 | 0.01 | 46 | 1010.1 |
| 20260502204729 | 54 | 315 | 3.0 | 8.0 | 0.00 | 0.01 | 0.01 | 45 | 1010.2 |
| 20260502203520 | 54 | 315 | 3.0 | 7.0 | 0.00 | 0.01 | 0.01 | 46 | 1010.2 |
| 20260502202520 | 55 | 270 | 3.0 | 10.0 | 0.00 | 0.01 | 0.01 | 45 | 1010.3 |
| 20260502201519 | 54 | 270 | 3.0 | 6.0 | 0.00 | 0.01 | 0.01 | 48 | 1010.4 |
| 20260502200519 | 54 | 315 | 4.0 | 10.0 | 0.00 | 0.01 | 0.01 | 47 | 1010.5 |
| 20260502195734 | 54 | 293 | 3.0 | 9.0 | 0.00 | 0.01 | 0.01 | 50 | 1010.6 |
| 20260502194519 | 54 | 293 | 1.0 | 4.0 | 0.00 | 0.01 | 0.01 | 47 | 1010.7 |
| 20260502193519 | 54 | 293 | 5.0 | 11.0 | 0.00 | 0.01 | 0.01 | 47 | 1010.8 |
| 20260502192520 | 54 | 315 | 5.0 | 11.0 | 0.00 | 0.01 | 0.01 | 46 | 1011.1 |
| 20260502191520 | 54 | 315 | 3.0 | 9.0 | 0.00 | 0.01 | 0.01 | 49 | 1011.2 |
| 20260502190519 | 54 | 315 | 1.0 | 5.0 | 0.00 | 0.01 | 0.01 | 52 | 1011.4 |
| 20260502185943 | 54 | 270 | 4.0 | 8.0 | 0.00 | 0.01 | 0.01 | 49 | 1011.5 |
| 20260502184520 | 54 | 315 | 3.0 | 7.0 | 0.00 | 0.01 | 0.01 | 50 | 1011.6 |
| 20260502183520 | 54 | 270 | 4.0 | 9.0 | 0.00 | 0.01 | 0.01 | 49 | 1011.7 |
| 20260502182733 | 54 | 315 | 3.0 | 8.0 | 0.00 | 0.01 | 0.01 | 47 | 1011.8 |
| 20260502181520 | 54 | 338 | 2.0 | 8.0 | 0.00 | 0.01 | 0.01 | 47 | 1011.8 |
| 20260502180520 | 54 | 293 | 2.0 | 16.0 | 0.00 | 0.01 | 0.01 | 46 | 1011.8 |
| 20260502170519 | 55 | 315 | 3.0 | 9.0 | 0.01 | 0.01 | 0.01 | 48 | 1012.0 |
| 20260502163520 | 53 | 315 | 2.0 | 8.0 | 0.00 | 0.00 | 0.00 | 52 | 1012.0 |
| 20260502162520 | 54 | 270 | 5.0 | 14.0 | 0.00 | 0.00 | 0.00 | 49 | 1012.3 |
| 20260502161520 | 54 | 135 | 2.0 | 6.0 | 0.00 | 0.00 | 0.00 | 52 | 1012.4 |
| 20260502160520 | 53 | 0 | 2.0 | 5.0 | 0.00 | 0.00 | 0.00 | 46 | 1012.6 |
| 20260502151520 | 52 | 68 | 2.0 | 6.0 | 0.00 | 0.00 | 0.00 | 55 | 1012.7 |
| 20260502150520 | 51 | 68 | 1.0 | 5.0 | 0.00 | 0.00 | 0.00 | 57 | 1012.8 |
| 20260502130521 | 46 | 270 | 3.0 | 6.0 | 0.00 | 0.01 | 0.00 | 49 | 1013.0 |
| 20260502123521 | 45 | 315 | 3.0 | 9.0 | 0.00 | 0.01 | 0.00 | 19 | 1013.0 |
| 20260502122731 | 44 | 248 | 3.0 | 8.0 | 0.00 | 0.01 | 0.00 | 14 | 1013.1 |
| 20260502121520 | 44 | 270 | 3.0 | 7.0 | 0.00 | 0.01 | 0.00 | 100 | 1013.1 |
| 20260502120520 | 44 | 270 | 2.0 | 4.0 | 0.00 | 0.01 | 0.00 | 100 | 1013.0 |
| 20260502115520 | 43 | 0.0 | 2.0 | 0.00 | 0.01 | 0.00 | 100 | 1013.0 | |
| 20260502113520 | 43 | 315 | 1.0 | 3.0 | 0.00 | 0.01 | 0.00 | 100 | 1012.8 |
| 20260502112520 | 42 | 315 | 1.0 | 3.0 | 0.00 | 0.01 | 0.00 | 100 | 1012.8 |
| 20260502111520 | 41 | 315 | 2.0 | 5.0 | 0.00 | 0.01 | 0.00 | 100 | 1012.8 |
| 20260502110521 | 41 | 0.0 | 0.0 | 0.00 | 0.01 | 0.00 | 100 | 1012.6 | |
| 20260502105520 | 41 | 0.0 | 0.0 | 0.00 | 0.01 | 0.00 | 100 | 1012.6 | |
| 20260502104520 | 41 | 315 | 1.0 | 3.0 | 0.00 | 0.01 | 0.00 | 100 | 1012.7 |
| 20260502103520 | 41 | 315 | 1.0 | 4.0 | 0.00 | 0.01 | 0.00 | 100 | 1012.6 |
| 20260502102520 | 41 | 315 | 3.0 | 5.0 | 0.00 | 0.01 | 0.00 | 100 | 1012.5 |
| 20260502101520 | 41 | 315 | 2.0 | 3.0 | 0.00 | 0.01 | 0.00 | 100 | 1012.5 |
| 20260502100518 | 42 | 315 | 1.0 | 2.0 | 0.00 | 0.01 | 0.00 | 100 | 1012.5 |
| 20260502091518 | 44 | 315 | 4.0 | 9.0 | 0.00 | 0.01 | 0.00 | 100 | 1012.2 |
| 20260502090521 | 44 | 338 | 3.0 | 9.0 | 0.00 | 0.01 | 0.00 | 100 | 1012.1 |
| 20260502071520 | 44 | 338 | 3.0 | 5.0 | 0.00 | 0.01 | 0.00 | 100 | 1011.0 |
| 20260502070731 | 44 | 0.0 | 0.0 | 0.00 | 0.01 | 0.00 | 100 | 1010.9 | |
| 20260502065519 | 44 | 0.0 | 0.0 | 0.00 | 0.01 | 0.00 | 100 | 1010.8 | |
| 20260502064521 | 45 | 0.0 | 1.0 | 0.00 | 0.01 | 0.00 | 100 | 1010.7 | |
| 20260502063734 | 45 | 0.0 | 1.0 | 0.00 | 0.01 | 0.00 | 100 | 1010.8 | |
| 20260502062518 | 46 | 0.0 | 2.0 | 0.00 | 0.01 | 0.00 | 100 | 1011.0 | |
| 20260502061518 | 47 | 0.0 | 0.0 | 0.00 | 0.01 | 0.00 | 100 | 1011.1 | |
| 20260502060732 | 47 | 338 | 1.0 | 3.0 | 0.00 | 0.01 | 0.00 | 100 | 1011.1 |
| 20260502055518 | 47 | 338 | 1.0 | 3.0 | 0.00 | 0.01 | 0.00 | 100 | 1011.1 |
| 20260502054519 | 47 | 0.0 | 2.0 | 0.00 | 0.01 | 0.00 | 100 | 1011.0 | |
| 20260502053521 | 48 | 0.0 | 0.0 | 0.00 | 0.01 | 0.00 | 100 | 1010.9 | |
| 20260502052519 | 48 | 0.0 | 2.0 | 0.00 | 0.01 | 0.00 | 100 | 1010.9 | |
| 20260502051520 | 48 | 0.0 | 0.0 | 0.00 | 0.01 | 0.00 | 100 | 1010.9 | |
| 20260502050520 | 48 | 0.0 | 0.0 | 0.00 | 0.01 | 0.00 | 100 | 1011.0 | |
| 20260502045518 | 48 | 0.0 | 0.0 | 0.00 | 0.01 | 0.00 | 100 | 1011.1 | |
| 20260502044519 | 48 | 0.0 | 0.0 | 0.00 | 0.01 | 0.00 | 100 | 1011.2 | |
| 20260502043520 | 49 | 0.0 | 0.0 | 0.00 | 0.02 | 0.00 | 100 | 1011.4 | |
| 20260502042944 | 49 | 0.0 | 0.0 | 0.00 | 0.02 | 0.00 | 100 | 1011.2 | |
| 20260502041518 | 49 | 0.0 | 0.0 | 0.00 | 0.02 | 0.00 | 100 | 1010.9 | |
| 20260502040519 | 49 | 0.0 | 2.0 | 0.00 | 0.02 | 0.00 | 100 | 1010.9 | |
| 20260502035729 | 49 | 0.0 | 1.0 | 0.00 | 0.02 | 0.02 | 100 | 1010.9 | |
| 20260502034519 | 49 | 0.0 | 2.0 | 0.00 | 0.02 | 0.02 | 100 | 1010.8 | |
| 20260502034157 | 50 | 0.0 | 0.0 | 0.00 | 0.02 | 0.02 | 100 | 1010.7 | |
| 20260502032520 | 50 | 0.0 | 0.0 | 0.00 | 0.02 | 0.02 | 100 | 1011.0 | |
| 20260502031520 | 50 | 0.0 | 3.0 | 0.00 | 0.02 | 0.02 | 100 | 1011.3 | |
| 20260502030520 | 50 | 338 | 1.0 | 4.0 | 0.00 | 0.02 | 0.02 | 100 | 1011.4 |
| 20260502025520 | 50 | 338 | 2.0 | 3.0 | 0.00 | 0.02 | 0.02 | 100 | 1011.3 |
| 20260502024520 | 50 | 338 | 1.0 | 3.0 | 0.00 | 0.02 | 0.02 | 100 | 1011.1 |
| 20260502023732 | 51 | 0.0 | 0.0 | 0.00 | 0.02 | 0.02 | 100 | 1011.0 | |
| 20260502022520 | 51 | 0.0 | 0.0 | 0.00 | 0.02 | 0.02 | 100 | 1011.1 | |
| 20260502021519 | 51 | 0.0 | 3.0 | 0.00 | 0.02 | 0.02 | 100 | 1010.9 | |
| 20260502020520 | 51 | 0.0 | 3.0 | 0.00 | 0.02 | 0.02 | 100 | 1010.8 | |
| 20260502015520 | 51 | 0.0 | 0.0 | 0.00 | 0.02 | 0.02 | 100 | 1011.0 | |
| 20260502014520 | 51 | 338 | 1.0 | 2.0 | 0.00 | 0.02 | 0.02 | 100 | 1010.9 |
| 20260502013520 | 51 | 338 | 1.0 | 4.0 | 0.00 | 0.02 | 0.02 | 100 | 1010.7 |
| 20260502012520 | 51 | 338 | 1.0 | 3.0 | 0.00 | 0.02 | 0.02 | 100 | 1010.4 |
| 20260502011520 | 51 | 0.0 | 2.0 | 0.00 | 0.02 | 0.02 | 100 | 1010.2 | |
| 20260502010520 | 51 | 0.0 | 0.0 | 0.00 | 0.02 | 0.02 | 100 | 1010.0 | |
| 20260502005520 | 51 | 338 | 2.0 | 5.0 | 0.00 | 0.02 | 0.02 | 100 | 1009.7 |
| 20260502004520 | 51 | 338 | 1.0 | 3.0 | 0.00 | 0.02 | 0.02 | 100 | 1009.7 |
| 20260502003520 | 51 | 0.0 | 1.0 | 0.00 | 0.02 | 0.02 | 100 | 1009.3 | |
| 20260502002520 | 51 | 338 | 1.0 | 3.0 | 0.00 | 0.02 | 0.02 | 100 | 1009.2 |
| 20260502001520 | 52 | 0.0 | 0.0 | 0.00 | 0.02 | 0.02 | 100 | 1009.0 | |
| 20260502000520 | 53 | 0.0 | 0.0 | 0.00 | 0.02 | 0.02 | 100 | 1008.9 | |
| 20260501235731 | 53 | 0.0 | 0.0 | 0.00 | 0.02 | 0.02 | 100 | 1008.9 | |
| 20260501234520 | 53 | 0.0 | 0.0 | 0.00 | 0.02 | 0.02 | 100 | 1009.0 | |
| 20260501233520 | 54 | 0.0 | 0.0 | 0.00 | 0.02 | 0.02 | 100 | 1009.0 | |
| 20260501232520 | 54 | 0.0 | 0.0 | 0.00 | 0.02 | 0.02 | 100 | 1008.9 | |
| 20260501231520 | 54 | 338 | 1.0 | 3.0 | 0.00 | 0.02 | 0.02 | 28 | 1008.9 |
| 20260501230520 | 54 | 0.0 | 0.0 | 0.00 | 0.02 | 0.02 | 18 | 1008.9 | |
| 20260501225520 | 54 | 0.0 | 1.0 | 0.00 | 0.02 | 0.02 | 41 | 1009.0 | |
| 20260501224520 | 55 | 338 | 1.0 | 3.0 | 0.00 | 0.02 | 0.02 | 51 | 1009.0 |
| 20260501223520 | 55 | 338 | 1.0 | 2.0 | 0.00 | 0.02 | 0.02 | 60 | 1009.3 |
| 20260501222520 | 55 | 338 | 2.0 | 5.0 | 0.00 | 0.02 | 0.02 | 63 | 1009.3 |
| 20260501221520 | 56 | 338 | 5.0 | 12.0 | 0.00 | 0.02 | 0.02 | 63 | 1009.5 |
| 20260501220520 | 57 | 315 | 6.0 | 11.0 | 0.00 | 0.02 | 0.02 | 60 | 1009.1 |
| 20260501215520 | 60 | 180 | 3.0 | 6.0 | 0.00 | 0.03 | 0.02 | 52 | 1008.8 |
| 20260501214520 | 60 | 180 | 2.0 | 5.0 | 0.00 | 0.03 | 0.02 | 50 | 1008.5 |
| 20260501213520 | 60 | 180 | 2.0 | 4.0 | 0.00 | 0.03 | 0.02 | 51 | 1008.4 |
| 20260501212520 | 61 | 180 | 2.0 | 4.0 | 0.00 | 0.03 | 0.02 | 52 | 1008.3 |